.
WxDataArchive / Data Records for 2011-08-30
2011-08-29 August 2011 2011-08-31

Data Records for Tuesday, 30 August 2011

Time	Temp	Chill	HIndex	Humid	Dewpt	 Wind 	HiWind	WindDir	Rain 	Barom 
-----	----	-----	------	-----	-----	------	------	-------	-----	----- 
00:00	58.7	58.7	58.7	79	52.2	0	0	---	0.00	30.047 
00:05	58.6	58.6	58.6	79	52.1	0	0	---	0.00	30.047 
00:10	58.4	58.4	58.4	80	52.3	0	0	---	0.00	30.047 
00:15	58.3	58.3	58.3	80	52.2	0	0	---	0.00	30.055 
00:20	58.1	58.1	58.1	80	52.0	0	0	---	0.00	30.055 
00:25	58.1	58.1	58.1	80	52.0	0	0	---	0.00	30.055 
00:30	58.0	58.0	58.0	80	51.9	0	0	---	0.00	30.052 
00:35	57.8	57.8	57.8	81	52.0	0	0	---	0.00	30.052 
00:40	57.6	57.6	57.6	81	51.8	0	0	---	0.00	30.052 
00:45	57.5	57.5	57.5	81	51.7	0	0	---	0.00	30.057 
00:50	57.3	57.3	57.3	82	51.9	0	0	---	0.00	30.057 
00:55	57.2	57.2	57.2	82	51.8	0	0	---	0.00	30.057 
01:00	57.0	57.0	57.0	82	51.6	0	0	---	0.00	30.057 
01:05	56.9	56.9	56.9	83	51.8	0	0	---	0.00	30.057 
01:10	56.7	56.7	56.7	83	51.6	0	0	---	0.00	30.057 
01:15	56.6	56.6	56.6	84	51.8	0	0	---	0.00	30.059 
01:20	56.5	56.5	56.5	84	51.7	0	0	---	0.00	30.059 
01:25	56.5	56.5	56.5	84	51.7	0	0	---	0.00	30.059 
01:30	56.3	56.3	56.3	84	51.5	0	0	---	0.00	30.070 
01:35	56.2	56.2	56.2	84	51.4	0	0	---	0.00	30.070 
01:40	56.0	56.0	56.0	85	51.6	0	0	---	0.00	30.070 
01:45	55.9	55.9	55.9	85	51.5	0	0	---	0.00	30.072 
01:50	55.7	55.7	55.7	85	51.3	0	0	---	0.00	30.072 
01:55	55.7	55.7	55.7	86	51.6	0	0	---	0.00	30.072 
02:00	55.6	55.6	55.6	86	51.5	0	0	---	0.00	30.070 
02:05	55.6	55.6	55.6	86	51.5	0	0	---	0.00	30.070 
02:10	55.4	55.4	55.4	87	51.6	0	0	---	0.00	30.070 
02:15	55.4	55.4	55.4	87	51.6	0	0	---	0.00	30.069 
02:20	55.3	55.3	55.3	87	51.5	0	0	---	0.00	30.069 
02:25	55.1	55.1	55.1	88	51.6	0	0	---	0.00	30.069 
02:30	55.1	55.1	55.1	88	51.6	0	0	---	0.00	30.070 
02:35	55.0	55.0	55.0	88	51.5	0	0	---	0.00	30.070 
02:40	54.8	54.8	54.8	88	51.3	0	0	---	0.00	30.070 
02:45	54.8	54.8	54.8	88	51.3	0	0	---	0.00	30.073 
02:50	54.8	54.8	54.8	88	51.3	0	0	---	0.00	30.073 
02:55	54.7	54.7	54.7	89	51.5	0	0	---	0.00	30.073 
03:00	54.7	54.7	54.7	89	51.5	0	0	---	0.00	30.074 
03:05	54.5	54.5	54.5	89	51.3	0	0	---	0.00	30.074 
03:10	54.4	54.4	54.4	89	51.2	0	0	---	0.00	30.074 
03:15	54.4	54.4	54.4	89	51.2	0	0	---	0.00	30.074 
03:20	54.4	54.4	54.4	90	51.5	0	0	---	0.00	30.074 
03:25	54.2	54.2	54.2	90	51.3	0	0	---	0.00	30.074 
03:30	54.1	54.1	54.1	90	51.2	0	0	---	0.00	30.077 
03:35	54.1	54.1	54.1	90	51.2	0	0	---	0.00	30.077 
03:40	53.9	53.9	53.9	90	51.0	0	0	---	0.00	30.077 
03:45	53.9	53.9	53.9	90	51.0	0	0	---	0.00	30.083 
03:50	53.8	53.8	53.8	91	51.2	0	0	---	0.00	30.083 
03:55	53.8	53.8	53.8	91	51.2	0	0	---	0.00	30.083 
04:00	53.6	53.6	53.6	91	51.0	0	0	---	0.00	30.073 
04:05	53.6	53.6	53.6	91	51.0	0	0	---	0.00	30.073 
04:10	53.6	53.6	53.6	91	51.0	0	0	---	0.00	30.073 
04:15	53.5	53.5	53.5	91	50.9	0	0	---	0.00	30.083 
04:20	53.5	53.5	53.5	91	50.9	0	0	---	0.00	30.083 
04:25	53.5	53.5	53.5	91	50.9	0	0	---	0.00	30.083 
04:30	53.5	53.5	53.5	91	50.9	0	0	---	0.00	30.089 
04:35	53.5	53.5	53.5	92	51.2	0	0	---	0.00	30.089 
04:40	53.3	53.3	53.3	92	51.0	0	0	---	0.00	30.089 
04:45	53.3	53.3	53.3	92	51.0	0	0	---	0.00	30.092 
04:50	53.2	53.2	53.2	92	50.9	0	0	---	0.00	30.092 
04:55	53.1	53.1	53.1	92	50.8	0	0	---	0.00	30.092 
05:00	53.1	53.1	53.1	92	50.8	0	0	---	0.00	30.091 
05:05	52.9	52.9	52.9	92	50.6	0	0	---	0.00	30.091 
05:10	52.8	52.8	52.8	92	50.5	0	0	---	0.00	30.091 
05:15	52.8	52.8	52.8	92	50.5	0	0	---	0.00	30.087 
05:20	52.8	52.8	52.8	92	50.5	0	0	---	0.00	30.087 
05:25	52.8	52.8	52.8	92	50.5	0	0	---	0.00	30.087 
05:30	52.8	52.8	52.8	92	50.5	0	0	---	0.00	30.083 
05:35	52.6	52.6	52.6	92	50.3	0	0	---	0.00	30.083 
05:40	52.6	52.6	52.6	92	50.3	0	0	---	0.00	30.083 
05:45	52.6	52.6	52.6	93	50.6	0	0	---	0.00	30.083 
05:50	52.6	52.6	52.6	93	50.6	0	0	---	0.00	30.083 
05:55	52.6	52.6	52.6	93	50.6	0	0	---	0.00	30.083 
06:00	52.5	52.5	52.5	93	50.5	0	0	---	0.00	30.089 
06:05	52.5	52.5	52.5	93	50.5	0	0	---	0.00	30.089 
06:10	52.5	52.5	52.5	93	50.5	0	0	---	0.00	30.089 
06:15	52.5	52.5	52.5	93	50.5	0	0	---	0.00	30.090 
06:20	52.5	52.5	52.5	93	50.5	0	0	---	0.00	30.090 
06:25	52.5	52.5	52.5	93	50.5	0	0	---	0.00	30.090 
06:30	52.5	52.5	52.5	93	50.5	0	0	---	0.00	30.086 
06:35	52.5	52.5	52.5	93	50.5	0	0	---	0.00	30.086 
06:40	52.3	52.3	52.3	93	50.3	0	0	---	0.00	30.086 
06:45	52.3	52.3	52.3	93	50.3	0	0	---	0.00	30.090 
06:50	52.3	52.3	52.3	93	50.3	0	0	---	0.00	30.090 
06:55	52.3	52.3	52.3	93	50.3	0	0	---	0.00	30.090 
07:00	52.2	52.2	52.2	93	50.2	0	0	---	0.00	30.092 
07:05	52.2	52.2	52.2	93	50.2	0	0	---	0.00	30.092 
07:10	52.2	52.2	52.2	93	50.2	0	0	---	0.00	30.092 
07:15	52.0	52.0	52.0	93	50.0	0	0	---	0.00	30.096 
07:20	52.2	52.2	52.2	93	50.2	0	0	---	0.00	30.096 
07:25	52.2	52.2	52.2	93	50.2	0	0	---	0.00	30.096 
07:30	52.2	52.2	52.2	94	50.5	0	0	---	0.00	30.097 
07:35	52.3	52.3	52.3	94	50.6	0	0	---	0.00	30.097 
07:40	52.3	52.3	52.3	94	50.6	0	0	---	0.00	30.097 
07:45	52.5	52.5	52.5	94	50.8	0	0	---	0.00	30.098 
07:50	52.6	52.6	52.6	94	50.9	0	0	---	0.00	30.098 
07:55	52.8	52.8	52.8	94	51.1	0	0	---	0.00	30.098 
08:00	52.9	52.9	52.9	94	51.2	0	0	---	0.00	30.107 
08:05	53.3	53.3	53.3	94	51.6	0	0	---	0.00	30.107 
08:10	53.6	53.6	53.6	94	51.9	0	0	---	0.00	30.107 
08:15	54.4	54.4	54.4	95	53.0	0	0	---	0.00	30.113 
08:20	55.3	55.3	55.3	95	53.9	0	0	---	0.00	30.113 
08:25	56.2	56.2	56.2	95	54.8	0	0	---	0.00	30.113 
08:30	56.6	56.6	56.6	94	54.9	0	0	---	0.00	30.112 
08:35	57.3	57.3	57.3	95	55.9	0	1	90	0.00	30.112 
08:40	58.1	58.1	58.1	93	56.1	0	1	---	0.00	30.112 
08:45	58.4	58.4	58.4	91	55.8	0	1	90	0.00	30.114 
08:50	59.0	59.0	59.0	90	56.1	0	1	90	0.00	30.114 
08:55	59.5	59.5	59.5	88	55.9	0	0	---	0.00	30.114 
09:00	59.9	59.9	59.9	85	55.4	0	1	90	0.00	30.123 
09:05	60.5	60.5	60.5	83	55.3	0	1	90	0.00	30.123 
09:10	61.0	61.0	61.0	81	55.1	0	0	---	0.00	30.123 
09:15	61.6	61.6	61.6	78	54.7	0	0	---	0.00	30.127 
09:20	62.4	62.4	62.4	77	55.1	0	0	---	0.00	30.127 
09:25	63.2	63.2	63.2	76	55.5	0	0	---	0.00	30.127 
09:30	64.0	64.0	64.0	75	55.9	0	0	---	0.00	30.128 
09:35	64.7	64.7	64.7	72	55.5	0	1	90	0.00	30.128 
09:40	65.3	65.3	65.3	70	55.3	0	1	90	0.00	30.128 
09:45	65.8	65.8	65.8	67	54.5	0	0	---	0.00	30.129 
09:50	66.3	66.3	66.3	66	54.6	0	1	90	0.00	30.129 
09:55	66.8	66.8	66.8	64	54.2	0	1	90	0.00	30.129 
10:00	67.3	67.3	67.3	65	55.1	0	0	---	0.00	30.135 
10:05	67.8	67.8	67.8	62	54.3	0	0	---	0.00	30.135 
10:10	68.1	68.1	68.1	64	55.5	0	0	---	0.00	30.135 
10:15	68.4	68.4	68.4	61	54.4	0	1	90	0.00	30.136 
10:20	69.1	69.1	69.1	60	54.6	0	1	90	0.00	30.136 
10:25	69.9	69.9	69.9	57	54.0	0	2	90	0.00	30.136 
10:30	70.8	70.8	70.8	55	53.8	0	2	90	0.00	30.134 
10:35	71.1	71.1	71.1	52	52.6	0	2	90	0.00	30.134 
10:40	71.6	71.6	71.6	53	53.5	0	1	90	0.00	30.134 
10:45	71.8	71.8	71.8	51	52.7	0	1	90	0.00	30.139 
10:50	71.8	71.8	71.8	52	53.2	0	2	90	0.00	30.139 
10:55	72.1	72.1	72.1	52	53.5	0	1	90	0.00	30.139 
11:00	72.7	72.7	72.7	50	53.0	1	3	90	0.00	30.137 
11:05	73.3	73.3	73.3	48	52.4	0	3	90	0.00	30.137 
11:10	74.0	74.0	74.0	48	53.0	0	1	90	0.00	30.137 
11:15	74.6	74.6	74.6	49	54.2	0	1	90	0.00	30.140 
11:20	75.3	75.3	77.7	43	51.2	1	3	90	0.00	30.140 
11:25	75.8	75.8	77.9	44	52.3	0	2	90	0.00	30.140 
11:30	76.1	76.1	78.0	45	53.2	0	1	90	0.00	30.140 
11:35	76.3	76.3	78.0	43	52.1	0	2	90	0.00	30.140 
11:40	76.3	76.3	78.1	45	53.4	0	3	90	0.00	30.140 
11:45	76.1	76.1	78.0	45	53.2	1	4	90	0.00	30.133 
11:50	76.0	76.0	78.0	44	52.5	0	1	90	0.00	30.133 
11:55	76.0	76.0	77.9	43	51.9	1	2	90	0.00	30.133 
12:00	76.0	76.0	77.9	42	51.2	1	4	90	0.00	30.134 
12:05	76.1	76.1	77.9	42	51.3	1	3	90	0.00	30.134 
12:10	76.5	76.5	78.1	41	51.0	1	3	90	0.00	30.134 
12:15	77.2	77.2	78.5	43	52.9	1	3	90	0.00	30.124 
12:20	76.8	76.8	78.2	42	51.9	1	5	90	0.00	30.124 
12:25	76.7	76.7	78.2	42	51.9	0	2	90	0.00	30.124 
12:30	77.0	77.0	78.2	40	50.8	2	5	90	0.00	30.119 
12:35	77.2	77.2	78.1	36	48.2	1	5	90	0.00	30.119 
12:40	77.6	77.6	78.5	39	50.7	1	5	90	0.00	30.119 
12:45	77.7	77.7	78.5	38	50.0	1	5	112	0.00	30.115 
12:50	77.9	77.9	78.6	38	50.2	1	3	158	0.00	30.115 
12:55	78.3	78.3	78.6	36	49.1	1	3	202	0.00	30.115 
13:00	78.5	78.5	78.8	37	50.0	1	4	270	0.00	30.109 
13:05	78.8	78.8	79.0	38	51.0	1	3	90	0.00	30.109 
13:10	78.8	78.8	79.0	37	50.3	2	5	90	0.00	30.109 
13:15	78.5	78.5	78.8	37	50.0	1	5	90	0.00	30.111 
13:20	77.9	77.9	78.6	39	50.9	1	5	90	0.00	30.111 
13:25	77.9	77.9	78.6	39	50.9	1	3	90	0.00	30.111 
13:30	77.7	77.7	78.3	36	48.6	1	3	90	0.00	30.111 
13:35	77.7	77.7	78.5	38	50.0	1	3	112	0.00	30.111 
13:40	77.6	77.6	78.3	36	48.5	0	4	90	0.00	30.111 
13:45	77.4	77.4	78.2	36	48.3	1	5	135	0.00	30.111 
13:50	77.2	77.2	78.2	37	48.9	0	3	90	0.00	30.111 
13:55	76.8	76.8	78.1	39	49.9	0	2	90	0.00	30.111 
14:00	76.5	76.5	78.0	39	49.7	1	3	112	0.00	30.105 
14:05	76.3	76.3	77.7	36	47.4	1	3	135	0.00	30.105 
14:10	76.3	76.3	77.8	37	48.1	0	2	135	0.00	30.105 
14:15	76.5	76.5	78.0	40	50.4	0	2	135	0.00	30.112 
14:20	76.5	76.5	77.9	38	49.0	1	4	90	0.00	30.112 
14:25	76.8	76.8	78.1	39	49.9	0	3	90	0.00	30.112 
14:30	77.4	77.4	78.3	38	49.8	1	4	90	0.00	30.109 
14:35	78.1	78.1	78.8	41	52.5	1	4	90	0.00	30.109 
14:40	78.8	78.8	78.8	35	48.8	1	3	45	0.00	30.109 
14:45	79.4	79.4	79.2	35	49.3	1	4	68	0.00	30.104 
14:50	79.4	79.4	79.2	36	50.1	1	4	68	0.00	30.104 
14:55	78.8	78.8	79.0	37	50.3	2	4	112	0.00	30.104 
15:00	78.1	78.1	78.7	38	50.4	2	6	90	0.00	30.104 
15:05	77.7	77.7	78.4	37	49.3	2	5	90	0.00	30.104 
15:10	78.1	78.1	78.6	37	49.7	1	3	112	0.00	30.104 
15:15	78.8	78.8	78.9	36	49.6	1	5	68	0.00	30.097 
15:20	78.8	78.8	78.8	35	48.8	2	4	112	0.00	30.097 
15:25	78.5	78.5	78.7	36	49.3	2	7	90	0.00	30.097 
15:30	78.1	78.1	78.5	36	48.9	1	3	90	0.00	30.089 
15:35	77.9	77.9	78.4	36	48.8	1	4	90	0.00	30.089 
15:40	77.7	77.7	78.4	37	49.3	1	5	90	0.00	30.089 
15:45	77.6	77.6	78.4	37	49.2	1	4	90	0.00	30.085 
15:50	77.4	77.4	78.3	38	49.8	1	3	90	0.00	30.085 
15:55	77.6	77.6	78.4	37	49.2	1	4	112	0.00	30.085 
16:00	77.6	77.6	78.3	36	48.5	1	4	112	0.00	30.073 
16:05	77.4	77.4	78.3	37	49.1	1	5	90	0.00	30.073 
16:10	77.2	77.2	78.2	38	49.6	0	3	68	0.00	30.073 
16:15	77.2	77.2	78.3	39	50.3	1	3	135	0.00	30.069 
16:20	76.8	76.8	78.0	38	49.2	2	5	90	0.00	30.069 
16:25	76.7	76.7	78.1	39	49.9	2	6	68	0.00	30.069 
16:30	76.5	76.5	78.0	39	49.7	2	4	68	0.00	30.065 
16:35	76.3	76.3	78.0	41	50.8	1	5	90	0.00	30.065 
16:40	76.1	76.1	77.9	40	50.0	1	6	90	0.00	30.065 
16:45	76.0	76.0	77.8	40	49.9	2	5	68	0.00	30.065 
16:50	76.0	76.0	77.8	40	49.9	1	3	90	0.00	30.065 
16:55	76.3	76.3	77.9	39	49.5	1	3	135	0.00	30.065 
17:00	76.5	76.5	78.1	41	51.0	1	5	68	0.00	30.066 
17:05	76.5	76.5	78.1	42	51.7	2	9	90	0.00	30.066 
17:10	76.5	76.5	78.1	41	51.0	1	3	90	0.00	30.066 
17:15	76.5	76.5	78.1	42	51.7	1	6	90	0.00	30.067 
17:20	76.1	76.1	78.0	43	52.0	2	3	90	0.00	30.067 
17:25	76.0	76.0	77.9	43	51.9	1	4	90	0.00	30.067 
17:30	75.8	75.8	77.8	43	51.7	1	6	90	0.00	30.066 
17:35	75.4	75.4	77.7	43	51.3	2	4	90	0.00	30.066 
17:40	75.4	75.4	77.7	45	52.6	0	3	90	0.00	30.066 
17:45	75.4	75.4	77.7	44	52.0	1	5	90	0.00	30.064 
17:50	75.4	75.4	77.7	44	52.0	1	5	68	0.00	30.064 
17:55	75.3	75.3	77.7	43	51.2	1	3	68	0.00	30.064 
18:00	75.3	75.3	77.7	44	51.9	1	5	68	0.00	30.066 
18:05	75.3	75.3	77.7	43	51.2	1	5	68	0.00	30.066 
18:10	75.3	75.3	77.7	43	51.2	1	4	90	0.00	30.066 
18:15	75.1	75.1	77.6	43	51.1	1	3	90	0.00	30.066 
18:20	75.3	75.3	77.7	44	51.9	0	2	90	0.00	30.066 
18:25	75.3	75.3	77.7	44	51.9	1	4	90	0.00	30.066 
18:30	75.3	75.3	77.7	43	51.2	1	4	90	0.00	30.062 
18:35	75.3	75.3	77.7	45	52.5	0	2	90	0.00	30.062 
18:40	75.3	75.3	77.7	45	52.5	1	3	90	0.00	30.062 
18:45	75.3	75.3	77.7	46	53.1	1	3	90	0.00	30.061 
18:50	75.1	75.1	77.7	46	52.9	1	3	90	0.00	30.061 
18:55	74.9	74.9	74.9	47	53.3	1	2	90	0.00	30.061 
19:00	74.7	74.7	74.7	48	53.7	0	2	90	0.00	30.061 
19:05	74.6	74.6	74.6	48	53.6	0	2	90	0.00	30.061 
19:10	74.6	74.6	74.6	48	53.6	1	3	90	0.00	30.061 
19:15	74.4	74.4	74.4	49	54.0	0	1	90	0.00	30.057 
19:20	74.2	74.2	74.2	50	54.3	1	3	90	0.00	30.057 
19:25	74.0	74.0	74.0	51	54.7	1	3	90	0.00	30.057 
19:30	73.9	73.9	73.9	52	55.1	1	5	90	0.00	30.053 
19:35	73.9	73.9	73.9	52	55.1	1	4	90	0.00	30.053 
19:40	73.7	73.7	73.7	53	55.5	1	2	68	0.00	30.053 
19:45	73.5	73.5	73.5	53	55.3	1	3	68	0.00	30.063 
19:50	73.2	73.2	73.2	54	55.5	0	2	68	0.00	30.063 
19:55	73.0	73.0	73.0	54	55.4	0	2	68	0.00	30.063 
20:00	72.7	72.7	72.7	55	55.6	0	2	68	0.00	30.062 
20:05	72.3	72.3	72.3	55	55.2	1	3	68	0.00	30.062 
20:10	72.0	72.0	72.0	56	55.4	1	3	68	0.00	30.062 
20:15	71.8	71.8	71.8	57	55.7	0	3	68	0.00	30.054 
20:20	71.5	71.5	71.5	58	55.9	0	1	68	0.00	30.054 
20:25	71.1	71.1	71.1	58	55.6	0	1	68	0.00	30.054 
20:30	70.8	70.8	70.8	59	55.7	1	3	68	0.00	30.054 
20:35	70.4	70.4	70.4	60	55.8	0	2	68	0.00	30.054 
20:40	70.1	70.1	70.1	61	56.0	0	1	68	0.00	30.054 
20:45	69.8	69.8	69.8	62	56.2	0	1	68	0.00	30.056 
20:50	69.4	69.4	69.4	62	55.8	0	2	68	0.00	30.056 
20:55	69.1	69.1	69.1	63	56.0	0	2	68	0.00	30.056 
21:00	68.9	68.9	68.9	64	56.2	0	1	68	0.00	30.060 
21:05	68.6	68.6	68.6	64	55.9	0	1	68	0.00	30.060 
21:10	68.4	68.4	68.4	64	55.7	0	2	68	0.00	30.060 
21:15	68.3	68.3	68.3	65	56.1	0	3	68	0.00	30.060 
21:20	68.3	68.3	68.3	65	56.1	0	1	68	0.00	30.060 
21:25	68.1	68.1	68.1	65	55.9	0	2	68	0.00	30.060 
21:30	67.9	67.9	67.9	65	55.7	1	3	68	0.00	30.055 
21:35	67.9	67.9	67.9	65	55.7	1	3	45	0.00	30.055 
21:40	67.9	67.9	67.9	65	55.7	0	2	45	0.00	30.055 
21:45	67.9	67.9	67.9	65	55.7	0	2	45	0.00	30.055 
21:50	68.1	68.1	68.1	65	55.9	1	4	45	0.00	30.055 
21:55	68.3	68.3	68.3	65	56.1	1	5	68	0.00	30.055 
22:00	68.3	68.3	68.3	65	56.1	2	4	68	0.00	30.053 
22:05	68.1	68.1	68.1	65	55.9	1	3	68	0.00	30.053 
22:10	67.9	67.9	67.9	66	56.1	2	7	68	0.00	30.053 
22:15	67.8	67.8	67.8	66	56.0	1	5	68	0.00	30.050 
22:20	67.6	67.6	67.6	67	56.2	1	3	90	0.00	30.050 
22:25	67.4	67.4	67.4	67	56.1	1	3	90	0.00	30.050 
22:30	67.3	67.3	67.3	67	56.0	1	4	90	0.00	30.051 
22:35	67.3	67.3	67.3	68	56.4	0	2	45	0.00	30.051 
22:40	67.1	67.1	67.1	68	56.2	0	1	45	0.00	30.051 
22:45	66.9	66.9	66.9	68	56.0	0	1	45	0.00	30.053 
22:50	66.8	66.8	66.8	69	56.3	0	1	45	0.00	30.053 
22:55	66.8	66.8	66.8	69	56.3	0	0	---	0.00	30.053 
23:00	66.6	66.6	66.6	69	56.1	0	2	45	0.00	30.055 
23:05	66.6	66.6	66.6	69	56.1	0	0	---	0.00	30.055 
23:10	66.4	66.4	66.4	69	55.9	0	0	---	0.00	30.055 
23:15	66.3	66.3	66.3	70	56.2	0	1	45	0.00	30.051 
23:20	66.3	66.3	66.3	70	56.2	0	1	45	0.00	30.051 
23:25	66.1	66.1	66.1	71	56.4	0	1	45	0.00	30.051 
23:30	66.0	66.0	66.0	71	56.3	0	3	45	0.00	30.043 
23:35	66.0	66.0	66.0	71	56.3	0	1	45	0.00	30.043 
23:40	65.8	65.8	65.8	72	56.5	0	1	45	0.00	30.043 
23:45	65.6	65.6	65.6	72	56.3	0	1	45	0.00	30.039 
23:50	65.5	65.5	65.5	72	56.2	0	1	45	0.00	30.039 
23:55	65.3	65.3	65.3	73	56.4	0	0	---	0.00	30.039 

CoCoRaHS
IN-AL-39
A2 Web Hosting
Creative Commons License
GoDaddy
search engine by freefind advanced

loaded 2018-11-20 08:18:08 • last modified 2010-11-18 10:43:29
Privacy PolicyDisclaimer
• wx.awcolley.com is powered by PmWiki v.2002016 •
• all content (unless otherwise noted) © 2018 A W Colley